Regional Weather Roundup
Issued by NWS

Home | Current Version | Previous Version | Text Only | Print | Product List | Glossary On
Versions: 1 2 3 4 5 6 7 8 9 10 11 12 13 14 15 16 17 18 19 20 21 22 23 24 25 26 27 28 29 30 31 32 33 34 35 36 37 38 39 40 41 42 43 44 45 46 47 48 49 50
000
ASUS46 KLOX 020712
RWRCA

SOUTHERN CALIFORNIA WEATHER ROUNDUP
NATIONAL WEATHER SERVICE OXNARD CALIFORNIA
1100 PM PST SUN MAR 01 2015

NOTE: "FAIR" INDICATES FEW OR NO CLOUDS BELOW 12,000 FEET WITH NO
SIGNIFICANT WEATHER AND/OR OBSTRUCTIONS TO VISIBILITY.

  -  STATIONS PRECEEDED BY AN ASTERISK (*) ARE NOT NWS OR FAA
     STATIONS AND ARE NOT SUBJECT TO NWS AND FAA QUALITY CONTROL.

CAZ041-042-087-020800-
LA AND ORANGE COUNTY COASTAL AREAS


CITY           SKY/WX    TMP DP  RH WIND       PRES   REMARKS
L.A. DOWNTOWN  LGT RAIN  50  47  89 VRB5      29.94F FOG
L.A. AIRPORT   RAIN      51  48  89 NW8       29.95S
LONG BEACH     CLOUDY    56  47  71 SE8       29.94F

CITY           SKY/WX    TMP DP  RH WIND       PRES   REMARKS
AVALON           N/A     50 N/A N/A MISG        N/A
FULLERTON      CLOUDY    55  44  66 E5        29.93F
*GETTY CENTER    N/A    N/A N/A N/A N9G20       N/A
HAWTHORNE      HVY RAIN  53  49  86 N3        29.95S
*LOS ALAMITOS  MOCLDY    54  47  77 SE5       29.94F
*REDONDO BEACH   N/A     52  48  85 W2        29.95S
SANTA ANA      MOCLDY    57  44  62 E5        29.94F
STA MONICA APT LGT RAIN  51  48  89 N7        29.95F
*UCLA            N/A     50  46  87 NW7       29.92F

$$

CAZ547-548-048-020800-
LA COUNTY VALLEYS AND INLAND EMPIRE


CITY           SKY/WX    TMP DP  RH WIND       PRES   REMARKS
BURBANK        RAIN      50  46  86 SW8       29.94S
VAN NUYS       CLOUDY    50  47  89 CALM      29.94F

CITY           SKY/WX    TMP DP  RH WIND       PRES   REMARKS
CORONA AIRPORT MOSUNNY   48  46  93 CALM      29.95S
*CHATSWORTH      N/A     49  45  87 CALM      29.97S
CHINO          CLOUDY    50  46  86 CALM      29.96R
MARCH AFB      CLOUDY    46  45  97 CALM      29.94S
*NORTHRIDGE      N/A     48  45  87 W2          N/A
ONTARIO        MOCLDY    51  43  74 CALM      29.94S
*PASADENA        N/A     54  48  82 CALM        N/A
RIVERSIDE      CLOUDY    50  43  77 SE5       29.94S
SAN BERNARDINO NOT AVBL
*WHITEMAN AP   NOT AVBL
*WOODLAND HILL   N/A     48  46  93 SW3         N/A

$$

CAZ054-055-020800-
LA AND SAN BERNARDINO COUNTY MOUNTAINS


CITY           SKY/WX    TMP DP  RH WIND       PRES   REMARKS
*ACTON           N/A     43  42  97 S6          N/A
*BIG BEAR AIRP PTSUNNY   27  23  86 CALM      29.88S
*BIG PINES       N/A     26  25  95 CALM        N/A
*CHILAO          N/A     33  31  93 E2          N/A
MT WILSON NWS    N/A     32  34 100 MISG        N/A
SANDBERG       SNOW      36  33  89 SW9       29.91F VSB 1/4 WCI  29
*WARM SPRINGS    N/A     37  37 100 CALM        N/A

$$

CAZ028-029-059-060-099-020800-
ANTELOPE VALLEY AND SURROUNDING AREAS


CITY           SKY/WX    TMP DP  RH WIND       PRES   REMARKS
LANCASTER      CLOUDY    45  39  79 NW6       29.92F
PALMDALE       MOCLDY    43  40  89 W8        29.92F

CITY           SKY/WX    TMP DP  RH WIND       PRES   REMARKS
29 PALMS       CLOUDY    46  43  89 SE8       29.98S
BARSTOW/DAGGET PTCLDY    46  40  79 SE3       29.92F
BISHOP         CLOUDY    39  30  70 NW5       29.91F
CHINA LAKE     CLOUDY    45  42  89 S3        29.92F
EDWARDS AFB    MOCLDY    44  38  80 NW2       29.89F
MOJAVE         CLOUDY    41  41 100 N3        29.92F
NEEDLES        LGT RAIN  51  46  83 N5        29.93F
VICTORVILLE    MOCLDY    43  37  81 S7        29.91S

$$

CAZ039-040-020800-
VENTURA AND SANTA BARBARA COUNTY COAST


CITY           SKY/WX    TMP DP  RH WIND       PRES   REMARKS
CAMARILLO      MOCLDY    51  46  83 NE9       29.94F
OXNARD AIRPORT PTCLDY    52  47  83 NE6       29.94F
*POINT MUGU    MOCLDY    51  48  89 N6        29.94F
SBA APT/GOLETA MOCLDY    50  42  74 CALM      29.94F
*SANTA BARBARA   N/A     51  41  68 CALM      30.02F
*VENTURA         N/A     50  48  93 NE9       29.99S

$$

CAZ044-045-020800-
VENTURA COUNTY VALLEYS


CITY           SKY/WX    TMP DP  RH WIND       PRES   REMARKS
*SIMI VALLEY     N/A     47  46  94 CALM      29.93F
*OJAI            N/A     45  43  92 CALM      29.90F
*FILLMORE        N/A     48  46  91 CALM      29.87F

$$

CAZ053-020800-
VENTURA COUNTY MOUNTAINS


CITY           SKY/WX    TMP DP  RH WIND       PRES   REMARKS
*LOCKWOOD VLY    N/A     32  32 100 MISG        N/A
*ROSE VALLEY     N/A     37  37 100 MISG        N/A

$$

CAZ034-035-036-020800-
CENTRAL COAST AND SANTA YNEZ VALLEY


CITY           SKY/WX    TMP DP  RH WIND       PRES   REMARKS
SAN LUIS OBISP FOG       42  41  96 CALM      29.96S VSB 1
SANTA MARIA    CLOUDY    45  42  89 CALM      29.96F

CITY           SKY/WX    TMP DP  RH WIND       PRES   REMARKS
*CAL POLY SLO    N/A     45  43  93 CALM        N/A
*LOMPOC        PTCLDY    43  37  81 CALM      29.96F
*PISMO BEACH     N/A     45  43  92 NE2       29.96S
*SANTA YNEZ    FAIR      43  37  81 SE7       29.95S

$$

CAZ037-038-051-020800-
SAN LUIS OBISPO COUNTY INTERIOR AND CUYAMA VALLEY


CITY           SKY/WX    TMP DP  RH WIND       PRES   REMARKS
*CUYAMA          N/A     43  40  89 CALM      29.95F
PASO ROBLES    MOCLDY    45  41  86 CALM      29.95F

$$

CAZ032-033-061-020800-
SOUTHERN DESERTS


CITY           SKY/WX    TMP DP  RH WIND       PRES   REMARKS
BLYTHE         LGT RAIN  52  51  97 W8        29.96R FOG
IMPERIAL       LGT RAIN  53  50  89 W3        29.96F
PALM SPRINGS   CLOUDY    52  51  97 MISG      29.97S
THERMAL        NOT AVBL

$$

ELSEWHERE ACROSS THE WESTERN UNITED STATES AND MEXICO


CITY           SKY/WX    TMP DP  RH WIND       PRES   REMARKS
DENVER, CO     CLOUDY    23  18  81 SE10      30.15F WCI  12
GRAND CANYON,  FLURRIES  37  36  96 S3        29.96F
HONOLULU, HI   MOCLDY    75  66  73 N8        30.04R
KAHULUI, MAUI  MOCLDY    73  70  88 NE9       30.04R
LAKE TAHOE, CA CLEAR     22  17  81 S5        29.90F WCI  16
LAS VEGAS, NV  LGT RAIN  47  40  76 SW6       29.92S
MAMMOTH LAKES, CLOUDY    19  19 100 NE3       29.91F
MEXICO CITY, M CLEAR     61  37  41 NW3       30.41S
PHOENIX, AZ    MOCLDY    66  50  56 S7        29.93S
PORTLAND, OR   CLOUDY    47  38  71 CALM      29.98F
RENO, NV       CLEAR     33  25  72 NW5       29.92F WCI  29
SALT LAKE CITY CLOUDY    40  32  73 CALM      29.95F
SAN DIEGO, CA  MOCLDY    56  47  71 SE9       29.97S
SAN FRANCISCO, CLEAR     55  51  86 NW3       29.93F
SAN JOSE, CA   CLEAR     50  40  68 CALM      29.94F
SEATTLE, WA    CLOUDY    44  35  70 N10       29.98S
TIJUANA, MEX   LGT RAIN  52  45  76 SE6       29.98S

$$

STATION/POSITION TIME  TEMP    WIND        PRES    VSBY  WAVE
                       AIR SEA DIR/SP/G                  HT/PER
                 (UTC) (F)     (DEG/KT/KT) (MB)    (MI)  (FT/S)
POINT ARGUELLO B NOT AVBL
WEST SANTA BARBA 0700   56 60  350/  8/ 10 1013.5F         7/12
POINT CONCEPTION NOT AVBL
EAST SANTA BARBA NOT AVBL
SANTA MONICA BAY 0700   56 62   50/  8/ 10 1013.9F         3/13



USA.gov is the U.S. government's official web portal to all federal, state and local government web resources and services.